Flight Information

DEPARTURE
LAS VEGAS, NV
Elevation:
2181
Runways:
8R/26L - 10526x150 - CONC-E
8L/26R - 14515x150 - CONC-G
1R/19L - 9771x150 - CONC-G
1L/19R - 8988x150 - CONC-G
Active PE Departure:
19L - 19R - 26R
Current PE ATIS:
P
Altimeter:
30.12
Remarks:
V F R DEPARTURES CONTACT CLEARANCE DELIVERY, ADVISE ON COURSE HEADING, ALTITUDE, AND IF FLIGHT FOLLOWING IS REQUESTED.
ATIS:
132.4 702-736-0950
Clearance Delivery:
118
Ground:
121.9 (West of Rwy 01R-19L) 121.1 (East of Rwy 01R-19L)
Tower:
LAS VEGAS TOWER 119.9
DESTINATION
,
Elevation:
TPA:
1000 (est.)


6605.2 NM75° True-14° Var60° HDG

Flight Plan:
(click to file on line)

1. Type
2. Aircraft Identification
3. Aircraft Type / Special Equipment
4. True Airspeed
kts
5. Departure Airport
(ICAO code)
6. Arriving Airport
(ICAO code)
7. Cruising Altitude
ft
8. Alternate Airport
(ICAO code)
9. Route of Flight
10. Remarks


00:00:00 Departure ATIS: Destination ATIS:

Clearance Limit:
Route:
Altitude: Expect in minutes
Frequency:
Transponder: (7500 Hijack / 7600 Lost Comms / 7700 Emergency)


KLAS 081856Z 00000KT 10SM FEW120 10/M01 A3032 RMK AO2 SLP269 T01001011
Time: 2022-12-08T18:56:00Z
1670647136
Winds: calm
Visibility: 10.0 sm
Clouds (AGL): FEW 12000
Temperature: 10.0 C
Dew Point: -1.1 C
Pressure: 30.318897 in Hgbr


Notes:

Data extracted from FAA Digital Chart Supplement. Effective: 0901Z Thursday, 27 JAN 2022 to 0900z Thursday, 24 MAR 2022
Current ATIS data is provided courtisy of PilotEdge.